Powrót do katalogu

KUIPER-00564

AktywnyŁącznośćLEO
NORAD 69625·PAYLOAD·🇺🇸 United States

Wystrzelony Jun 17, 2026 z Guiana Space Centre

Loading…

Następne Przeloty (najbliższe 24 godziny)

TLE

ŚwieżeSource: CelesTrak SupGP

Epoka: Sep 14, 2026, 19:13 UTC

1 69625C 26140AK  26257.80079861  .00001693  00000+0  23987-3 0  2579
2 69625  51.8979 334.2736 0001957 106.2580 135.5611 14.76573921    19

Śledź KUIPER-00564 w czasie rzeczywistym z AllMySat

Download on the App Store